Location: Brighton Point
(40.6144°N, 111.7933°W)
Time: 00:27:36
(UTC+00:00)

N. Korean satellite - Pass Details

Date: 07 March 2021
Orbit: 453 x 499 km, 97.2° (Epoch: 11 April)

Event Time Altitude Azimuth Distance (km) Brightness Sun altitude
Rises 13:02:46 0° 8° (N) 2,538 10.3 -10.0°
Reaches altitude 10° 13:04:50 10° 5° (N) 1,663 9.4 -9.6°
Maximum altitude 13:08:22 64° 284° (WNW) 540 6.5 -8.9°
Drops below altitude 10° 13:11:57 10° 202° (SSW) 1,675 9.1 -8.3°
Sets 13:14:02 0° 200° (SSW) 2,558 10.0 -7.9°
